"Pseudo-MPEC" for P11dyxa

Created 2021 Feb 27 23:07:09 UT using Find_Orb

Click here for an explanation of pseudo-MPECs

 
 Astrometry: 
     P11dyxa  C2020 11 25.50004 10 32 18.11 +01 13 32.7    ~2IH7       VNEOCPG96
     P11dyxa  C2020 11 25.51030 10 32 18.55 +01 13 29.8    ~2IH7       VNEOCPG96
     P11dyxa  C2020 11 25.51543 10 32 18.74 +01 13 29.0    ~2IH7       VNEOCPG96
     P11dyxa  C2020 12 21.47431 10 45 37.60 -00 14 27.6    ~2IH7 21.8 GVNEOCPG96
     P11dyxa  C2020 12 21.47945 10 45 37.72 -00 14 28.0    ~2IH7 21.2 GVNEOCPG96
     P11dyxa  C2020 12 25IAah0dSWRp$jL-Am6Uuc6Zh!r?FoW`syGac1$=C0gGTm.O:E^5btF51
     P11dyxa  C2020 12 25JPPvpvlM\e*Do^;8n(:uR6!j%deOn;L7rlt]LX=p'1tJ94MijY%lF51
     P11dyxa  C2021 01 07I*04Z$O`CAXi;o;M2fT4wN_kfZ-E9ynCc]Wgf=d-uSDIOW5*EfX*F51
     P11dyxa  C2021 01 081upE\o^5(x!_?gW*u,7wQ`'bO1-pCl'rMT2Astrometry1iPmA+-F51
     P11dyxa  C2021 01 08ardkGp\y!CcLkqB4=$-Y+aEp+OdLZqg-52._oaa8AJ2ua!l?.JIKF51
     P11dyxa  C2021 01 11@.U*5iUvD5_*^kPBon.EU/7Nq=xuC?]x#rg3OWWaW,RyFb!VK8*CF52
     P11dyxa  C2021 01 110]r-U+Y(LlWD$u!eQYL]2(]t)mFAxC+5;87JwJRJq/nu^J:i]fLoF52
     P11dyxa  C2021 01 11n0Dw#DsUAXj6q[`H,9L#uRaElP(3#Q'guYjs,:djP57^2*di,_AmF52
     P11dyxa  C2021 01 11*gxfU(B9;fgGf'e1X!7I9#S#F_cg-GT_4U:R76E,V2Swnr.syOfVF52
     P11dyxa  C2021 01 16\DuaC(bQAv,[(wK()(:6Y./g4\@=#vyGxredacted;ubuWJLy!34F52
     P11dyxa  C2021 01 16)0`1nB*!4mB#Pt-8tTjIpe@kYA$n%i.j]PpA+_i'?C6L50ZYYPD:F52
     P11dyxa  C2021 01 16JisFngK]O;@%2;dK*kg#h#)#4=\GmZ;rJ5Vi!,^ueJj*uuubRd@\F52
     P11dyxa  C2021 01 16gTS$UG^Ks.:7LJZ'0VvCGvU[(s!a/re?#il2))8T=td[P:XQtwMPF52
     P11dyxa  C2021 02 07.33519 10 46 45.72 -00 02 42.2    ~2IH7 21.2 GVNEOCPG96
     P11dyxa  C2021 02 07.34033 10 46 45.62 -00 02 41.1    ~2IH7 21.2 GVNEOCPG96
     P11dyxa  C2021 02 07X0I3NdBF)`?-*1s3neA1_`G6T%AOIY4Y(!-GCT*^s7h_dUSPQei7F52
     P11dyxa  C2021 02 072Ykk!tnJS\)6^6][Dg?rYaWw=dMnOq_;P*-Q%UUXk^n)OQeMs^E,F52
     P11dyxa  C2021 02 07V)qA1?J($@Xb'dg\?F'X:1-FP4sh4%Bj.9e?Xj!60Zy7DfMcfTu[F52
     P11dyxa  C2021 02 10?([I=T8+3ZuAN;;,+woPP`Npgl]ug;pSdg-Vr@7G;?0KGMpWR0,IF51
     P11dyxa  C2021 02 10wx`seXh51,rcN8TP-slxnE!d-O.0L`pyL(ga9N17F#EveC)p7(KUF51
     P11dyxa  C2021 02 10*Y*mCWSn0YvRu69!q9Y6D43M*JUV%9i0`2AnQM#)Hmc;nZU'vkK0F51
     P11dyxa  C2021 02 17XR;(aKaU:q;Ll/Sx]V[_#E!K%VS!$fY1'arRHMFtCs@Ri\O9EPdJF51
     P11dyxa  C2021 02 17,=avm@-t[Y')a'W*x\pUU;_t@k7F,g9Lth-.IjoPHyQ51p;NgJ]\F51
     P11dyxa  C2021 02 17/WTII`6fe*ssSdB*fu5@0FjNW*fnnwpHFsc76OV@IONgK2-FG'0GF51
     P11dyxa  C2021 02 17qjP)upwimGknA.+1^a+ajY(;Ei;lpKngpxJEnGh;IY/jh:UU`gytF51
     P11dyxa  C2021 02 17on?^/f.54O+2PZGrupQ+:syoy/0@.*i##'2i5!We`iej#fby7:^+F51
     P11dyxa  C2021 02 17g]UAle;!Iclick+XLfDpVFMu,q:wt9Mq-1#uoXp;C1FpNr]sB9?JF51
     P11dyxa |C2021 02 18h%A(Vo.pCZ#T]RI;He84[8*0dA]-4W[R*8Gm.jMeEdHY@gqT#c_3807
     P11dyxa |C2021 02 18MpZ;Lk=-Cykoa5BMZ,E]eeJ6@MyY:9daTj,LxPNQuC9d?@y%e\D*807
     P11dyxa |C2021 02 18,4$Zg]Nmw9.+);W[E_3t\L^UF]4e?XoFt`31h[b'in1^%F)?YWU_807
     P11dyxa  C2021 02 18.47723 10 43 17.79 +00 35 48.8    ~2M7b 21.5 GVNEOCPI52
     P11dyxa  C2021 02 18.48669 10 43 17.57 +00 35 49.6    ~2M7b       VNEOCPI52
     P11dyxa KC2021 02 181+SEpMX@S$nm8Y[MB=j(!IN^h.DG2/S?T#F2wSkkF]K\0Gy7'[:U474
     P11dyxa KC2021 02 18@)=6'ejruDOB1Muv9CXIj1O'l1v!+%?A`^w*Vr(+:926oQ2.tD1?474
     P11dyxa KC2021 02 18/a!LvWUuR;3Oyi!(Oua,klrSAp?`%`,]\=82o.Ex-iSirIeYUV'c474
     P11dyxa |C2021 02 19GQ(a0bGjH^MeQ_Z9*2MfjE5UYEe_N`X1GhMHYva`alyv+]b+1(uVH06
     P11dyxa |C2021 02 19*5=oNCx4Uc5x681fSK(EJ$P-@5rIeOAod^?m[='kZqCJ/.7bY?a)H06
     P11dyxa KC2021 02 22w7j=L=@klaa0y#5w_Z1V#[?1r'hereDkB'hYq`_4ZQZBlkuLH0I-N51
     P11dyxa KC2021 02 22jZcGo\XB=V3_]VUpXCP/XL!#HMK2P3WdP$Y37!Pmi6QE.`of]Eu;N51
     P11dyxa KC2021 02 22LPtWD`aWqK-v_@g:q4)-?(;Yw\qwfor12Ib+wsO][,U,m+E4L`_:N51
     P11dyxa KC2021 02 22CF4L;m#wdT/Q#K\TDel%KGf,1,2qko7:u-.x*L-9Wddm?cX1h]2TN51
     P11dyxa KC2021 02 22Vr@b*k.0`yK[,3479Aexplanation*q+Id$fw5T4Gcj?]-#No45nN51
     P11dyxa KC2021 02 229JU^F?YPj?S/C?`YNtZkeTNLWAEk5^DTj84u(SNkPHQ/vLDgkxo=N51
     P11dyxa KC2021 02 22Uq^!=M9Yr2gJ!7,.@x_h)HUl_FDT=%!UB)HUUZCq^xck-)CFKLHCN51
     P11dyxa KC2021 02 22\;\\_69oUHl8K!m+x?Dw\i^?f^j8,gNGI1a91T.fWT%(0L3.E1_'N51

Station data:
(474) Mount John Observatory, Lake Tekapo  (S43.987388 E170.464960)  New
   Zealand.  Observers A. C. Gilmore, P. M. Kilmartin. Measurer P. M.
   Kilmartin. 1.0-m f/7.7 reflector + CCD.
(807) Cerro Tololo Observatory, La Serena  (S30.169136 W70.805900)  Chile.
(F51) Pan-STARRS 1, Haleakala  (N20.707235 W156.255910)  US/Hawaii.
   Observers N. Primak, A. Schultz, S. Watters, J. Thiel, T. Goggia. Measurer
   PS1 Science Consortium. 1.8-m Ritchey-Chrétien + CCD.
(F52) Pan-STARRS 2, Haleakala  (N20.707384 W156.255910)  US/Hawaii. 1.8-m
   Ritchey-Chrétien + CCD.
(G96) Mt. Lemmon Survey  (N32.442754 W110.788720)  US/Arizona.  Observers T.
   A. Pruyne, B. M. Africano, E. J. Christensen, G. A. Farneth, D. C. Fuls,
   A. R. Gibbs, A. D. Grauer, H. Gröller, J. A. Johnson, R. A. Kowalski, S.
   M. Larson, G. J. Leonard, D. Rankin, R. L. Seaman, F. C. Shelly. 1.5-m
   reflector + 10K CCD.
(H06) RAS Observatory, Mayhill  (N32.903325 W105.528700)  US/New
   Mexico.  Observers E. Guido, G. Sostero, V. Gonano, L. Donato.
(I52) Steward Observatory, Mt. Lemmon Station  (N32.442547 W110.788920)
   US/Arizona.  Observers T. A. Pruyne, B. M. Africano, E. J. Christensen, G.
   A. Farneth, D. C. Fuls, A. R. Gibbs, A. D. Grauer, H. Gröller, J. A.
   Johnson, R. A. Kowalski, S. M. Larson, G. J. Leonard, D. Rankin, R. L.
   Seaman, F. C. Shelly. 1.0-m reflector + CCD.
(N51) GROWTH India Telescope, IAO, Hanle  (N32.779244 E78.964610)  India.

Orbital elements:  P11dyxa
   Perihelion 2021 Apr 1.267297 +/- 0.160712 TT =  6:24:54 (JD 2459305.767297)
Epoch 2021 Feb 22.0 TT = JDT 2459267.5   Ju: 0.5695   Ur: 0.8753   Ne: 0.7306
M 359.63833808 +/- 0.0016610        (J2000 ecliptic)          AutoNEOCP
n   0.00945093 +/- 4.27471e-6       Peri.  337.69356 +/- 0.0285444
a  22.1557296 +/- 0.00667734        Node   187.87555 +/- 0.0015756
e   0.8200532 +/- 4.45128e-5        Incl.   10.82743 +/- 0.0003948
P 104.29                   H 15.2   G  0.15   U  4.5  
q 3.98685184 +/- 0.000232373    Q 40.3246074 +/- 0.0131529
From 50 observations 2020 Nov. 25-2021 Feb. 22; mean residual 0".24
Residuals in arcseconds: 
201125 G96  .37-  .07+    210116 F52  .14+  .10-    210218 807  .07+  .05-    
201125 G96  .23+  .20-    210207 G96  .00   .19-    210218 I52  .75+  .67+    
201125 G96  .08+  .31+    210207 G96  .18-  .01+    210218 I52  .47+  .76-    
201221 G96  .15+  .27-    210207 F52  .16-  .08+    210218 474  .08-  .11+    
201221 G96  .39+  .05+    210207 F52  .19-  .22-    210218 474  .00   .08+    
201225 F51  .14+  .16+    210207 F52  .08+  .14+    210218 474  .21-  .05-    
201225 F51  .12-  .17+    210210 F51  .04+  .00     210219 H06  .30-  .49-    
210107 F51  .05-  .21+    210210 F51  .02-  .04-    210219 H06  .05-  .16-    
210108 F51  .16-  .35-    210210 F51  .03+  .06-    210222 N51  .10+  .31-    
210108 F51  .15-  .04-    210217 F51  .02-  .09+    210222 N51  .19-  .42+    
210111 F52  .06-  .10-    210217 F51  .06-  .00     210222 N51  .31+  .33+    
210111 F52  .35-  .12+    210217 F51  .04-  .10+    210222 N51  .31+  .37+    
210111 F52  .02-  .13-    210217 F51  .04-  .03-    210222 N51  .29-  .42+    
210111 F52  .06-  .38+    210217 F51  .08-  .03+    210222 N51  .18+  .65+    
210116 F52  .05+  .26-    210217 F51  .01+  .01-    210222 N51  .39-  .12-    
210116 F52  .09-  .13-    210218 807  .02-  .02+    210222 N51  .38-  .04-    
210116 F52  .06+  .04+    210218 807  .11+  .02-    

Ephemerides (geocentric):
Date (UTC) HH   RA              Dec         delta   r     elong  mag " sig PA
---- -- -- --  -------------   -----------  ------ ------ -----  --- ---- ---
2021 02 27 23  10 39 54.721   +01 15 56.33  3.0097 3.9948 173.1 20.8 .058 129
2021 02 28 00  10 39 53.812   +01 16 07.55  3.0096 3.9948 173.1 20.8 .058 129
2021 02 28 01  10 39 52.902   +01 16 18.77  3.0096 3.9948 173.1 20.8 .059 129
2021 02 28 02  10 39 51.993   +01 16 30.00  3.0095 3.9948 173.2 20.8 .059 129
2021 02 28 03  10 39 51.083   +01 16 41.23  3.0095 3.9947 173.2 20.8 .059 129
2021 02 28 04  10 39 50.174   +01 16 52.47  3.0094 3.9947 173.2 20.8 .059 129
2021 02 28 05  10 39 49.265   +01 17 03.71  3.0094 3.9947 173.2 20.8 .060 129
2021 02 28 06  10 39 48.355   +01 17 14.95  3.0093 3.9947 173.2 20.8 .060 129
2021 02 28 07  10 39 47.446   +01 17 26.20  3.0093 3.9947 173.2 20.8 .060 129
2021 02 28 08  10 39 46.537   +01 17 37.45  3.0092 3.9946 173.2 20.8 .061 129
2021 02 28 09  10 39 45.628   +01 17 48.71  3.0092 3.9946 173.2 20.8 .061 129
2021 02 28 10  10 39 44.718   +01 17 59.97  3.0092 3.9946 173.2 20.8 .061 129
2021 02 28 11  10 39 43.809   +01 18 11.24  3.0091 3.9946 173.3 20.8 .062 129
2021 02 28 12  10 39 42.900   +01 18 22.51  3.0091 3.9946 173.3 20.8 .062 129
2021 02 28 13  10 39 41.991   +01 18 33.78  3.0090 3.9945 173.3 20.8 .062 129
2021 02 28 14  10 39 41.082   +01 18 45.06  3.0090 3.9945 173.3 20.8 .063 129
2021 02 28 15  10 39 40.172   +01 18 56.34  3.0089 3.9945 173.3 20.8 .063 129
2021 02 28 16  10 39 39.263   +01 19 07.63  3.0089 3.9945 173.3 20.8 .063 129
2021 02 28 17  10 39 38.354   +01 19 18.92  3.0088 3.9945 173.3 20.8 .064 129
2021 02 28 18  10 39 37.445   +01 19 30.22  3.0088 3.9944 173.3 20.8 .064 129
2021 02 28 19  10 39 36.536   +01 19 41.52  3.0088 3.9944 173.3 20.8 .064 129
2021 02 28 20  10 39 35.627   +01 19 52.83  3.0087 3.9944 173.3 20.8 .064 129
2021 02 28 21  10 39 34.718   +01 20 04.13  3.0087 3.9944 173.3 20.8 .065 129
2021 02 28 22  10 39 33.809   +01 20 15.45  3.0086 3.9944 173.3 20.8 .065 129
2021 02 28 23  10 39 32.901   +01 20 26.76  3.0086 3.9943 173.4 20.8 .065 129
2021 03 01 00  10 39 31.992   +01 20 38.09  3.0086 3.9943 173.4 20.8 .066 129
2021 03 01 01  10 39 31.083   +01 20 49.41  3.0085 3.9943 173.4 20.8 .066 129
2021 03 01 02  10 39 30.174   +01 21 00.74  3.0085 3.9943 173.4 20.8 .066 129
2021 03 01 03  10 39 29.266   +01 21 12.08  3.0085 3.9943 173.4 20.8 .067 129
2021 03 01 04  10 39 28.357   +01 21 23.41  3.0084 3.9942 173.4 20.8 .067 129
2021 03 01 05  10 39 27.449   +01 21 34.76  3.0084 3.9942 173.4 20.8 .067 129
2021 03 01 06  10 39 26.540   +01 21 46.10  3.0083 3.9942 173.4 20.8 .068 129
2021 03 01 07  10 39 25.632   +01 21 57.45  3.0083 3.9942 173.4 20.8 .068 129
2021 03 01 08  10 39 24.724   +01 22 08.81  3.0083 3.9942 173.4 20.8 .068 129
2021 03 01 09  10 39 23.815   +01 22 20.17  3.0082 3.9941 173.4 20.8 .069 129
2021 03 01 10  10 39 22.907   +01 22 31.53  3.0082 3.9941 173.4 20.8 .069 129
2021 03 01 11  10 39 21.999   +01 22 42.90  3.0082 3.9941 173.4 20.8 .069 129
2021 03 01 12  10 39 21.091   +01 22 54.27  3.0081 3.9941 173.4 20.8 .070 129
2021 03 01 13  10 39 20.183   +01 23 05.64  3.0081 3.9941 173.4 20.8 .070 129
2021 03 01 14  10 39 19.275   +01 23 17.02  3.0081 3.9940 173.4 20.8 .070 129
2021 03 01 15  10 39 18.367   +01 23 28.40  3.0080 3.9940 173.4 20.8 .071 129
2021 03 01 16  10 39 17.459   +01 23 39.79  3.0080 3.9940 173.4 20.8 .071 129
2021 03 01 17  10 39 16.552   +01 23 51.18  3.0080 3.9940 173.4 20.8 .071 129
2021 03 01 18  10 39 15.644   +01 24 02.57  3.0080 3.9940 173.4 20.8 .072 129
2021 03 01 19  10 39 14.736   +01 24 13.97  3.0079 3.9939 173.4 20.8 .072 129
2021 03 01 20  10 39 13.829   +01 24 25.37  3.0079 3.9939 173.4 20.8 .072 129
2021 03 01 21  10 39 12.922   +01 24 36.78  3.0079 3.9939 173.4 20.8 .073 129
2021 03 01 22  10 39 12.014   +01 24 48.19  3.0078 3.9939 173.4 20.8 .073 129